Change the Weather History Date:

Friday, January 3, 2014

  Actual Average Record
Temperature  
Mean Temperature 52 °F -  
Max Temperature 55 °F 50 °F 64 °F (2013)
Min Temperature 48 °F 38 °F 30 °F (2000)
Degree Days  
Heating Degree Days 14    
Growing Degree Days 2 (Base 50)    
Moisture  
Dew Point 48 °F    
Average Humidity 90    
Maximum Humidity 100    
Minimum Humidity 76    
Precipitation  
Precipitation 0.02 in - - ()
Sea Level Pressure  
Sea Level Pressure 29.94 in    
Wind  
Wind Speed 10 mph ()    
Max Wind Speed 21 mph    
Max Gust Speed 37 mph    
Visibility 6.1 miles    
Events Rain    
Averages and records for this station are not official NWS values.
T = Trace of Precipitation, MM = Missing Value Source: Averaged Metar Reports

Daily Weather History Graph

Daily Weather History Graph

Search for Another Location

Airport or City:

Trip Planner

Search our weather history database for the weather conditions in past years. The results will help you decide how hot, cold, wet, or windy it might be!

Date:

Astronomy

Jan. 03, 2014 Rise Set
Actual Time 9:04 AM CET 6:11 PM CET
Civil Twilight 8:32 AM CET 6:43 PM CET
Nautical Twilight 7:57 AM CET 7:19 PM CET
Astronomical Twilight 7:22 AM CET 7:53 PM CET
Moon 10:17 AM CET (1/3) 9:09 PM CET (1/3)
Length of Visible Light 10h 11m
Length of Day
9h 07m
Waxing Crescent, 6% of the Moon is Illuminated
Jan 3
Waxing Crescent
Jan 8
First Quarter
Jan 16
Full
Jan 24
Last Quarter
Jan 30
New

Hourly Weather History & Observations

Time (CET) Temp. Dew Point Humidity Pressure Visibility Wind Dir Wind Speed Gust Speed Precip Events Conditions
12:00 AM 51.8 °F 51.8 °F 100% 29.80 in 6.2 mi SSW 12.7 mph - N/A Rain Light Rain
12:30 AM 53.6 °F 53.6 °F 100% 29.83 in 6.2 mi WSW 10.4 mph 23.0 mph N/A   Mostly Cloudy
1:00 AM 53.6 °F 53.6 °F 100% 29.83 in 6.2 mi WSW 10.4 mph 21.9 mph N/A Rain Light Rain
1:30 AM 53.6 °F 53.6 °F 100% 29.83 in 3.7 mi SW 11.5 mph - N/A Rain Light Rain
2:00 AM 53.6 °F 53.6 °F 100% 29.83 in 6.2 mi SW 10.4 mph 23.0 mph N/A   Mostly Cloudy
2:30 AM 51.8 °F 51.8 °F 100% 29.86 in 6.2 mi WSW 10.4 mph - N/A   Scattered Clouds
3:00 AM 51.8 °F 48.2 °F 88% 29.86 in 6.2 mi WSW 5.8 mph - N/A   Scattered Clouds
3:30 AM 51.8 °F 50.0 °F 94% 29.86 in 6.2 mi SW 10.4 mph - N/A   Scattered Clouds
4:00 AM 51.8 °F 51.8 °F 100% 29.86 in 6.2 mi SW 12.7 mph - N/A   Mostly Cloudy
4:30 AM 51.8 °F 51.8 °F 100% 29.89 in 6.2 mi SW 11.5 mph - N/A   Scattered Clouds
5:00 AM 51.8 °F 51.8 °F 100% 29.89 in 6.2 mi SW 11.5 mph 23.0 mph N/A   Scattered Clouds
5:30 AM 51.8 °F 51.8 °F 100% 29.89 in 4.3 mi WSW 13.8 mph 25.3 mph N/A   Mostly Cloudy
6:00 AM 51.8 °F 51.8 °F 100% 29.89 in 4.3 mi WSW 11.5 mph - N/A   Scattered Clouds
6:30 AM 51.8 °F 50.0 °F 94% 29.89 in 6.2 mi WSW 11.5 mph 23.0 mph N/A   Mostly Cloudy
7:00 AM 51 °F 49 °F 90% 29.92 in 9 mi SW 13.8 mph - -   Partly Cloudy
7:00 AM 51.8 °F 50.0 °F 94% 29.92 in 6.2 mi WSW 11.5 mph 23.0 mph N/A   Scattered Clouds
7:30 AM 51.8 °F 48.2 °F 88% 29.92 in 6.2 mi WSW 10.4 mph 21.9 mph N/A   Scattered Clouds
8:00 AM 51.8 °F 48.2 °F 88% 29.95 in 6.2 mi West 8.1 mph - N/A   Mostly Cloudy
8:30 AM 51.8 °F 46.4 °F 82% 29.95 in 6.2 mi SW 6.9 mph - N/A   Scattered Clouds
9:00 AM 50.0 °F 48.2 °F 94% 29.95 in 3.7 mi WSW 6.9 mph 18.4 mph N/A Rain Light Rain Showers
9:30 AM 50.0 °F 46.4 °F 87% 29.98 in 6.2 mi Variable 2.3 mph - N/A   Scattered Clouds
10:00 AM 48 °F 44 °F 79% 30.03 in 9 mi WSW 9.2 mph - -   Partly Cloudy
10:00 AM 48.2 °F 42.8 °F 82% 30.01 in 6.2 mi SW 3.5 mph - N/A   Scattered Clouds
10:30 AM 50.0 °F 44.6 °F 82% 30.01 in 6.2 mi SSW 4.6 mph - N/A   Scattered Clouds
11:00 AM 50.0 °F 42.8 °F 76% 30.01 in 6.2 mi SW 5.8 mph - N/A   Scattered Clouds
11:30 AM 51.8 °F 46.4 °F 82% 30.04 in 6.2 mi SW 8.1 mph - N/A   Partly Cloudy
12:00 PM 51.8 °F 48.2 °F 88% 30.04 in 6.2 mi SW 10.4 mph 23.0 mph N/A   Scattered Clouds
12:07 PM 51.8 °F 48.2 °F 88% 30.01 in 6.2 mi SW 9.2 mph - N/A   Mostly Cloudy
12:30 PM 51.8 °F 48.2 °F 88% 30.01 in 6.2 mi WSW 10.4 mph - N/A   Mostly Cloudy
1:00 PM 53 °F 48 °F 78% 30.03 in 7 mi SW 13.8 mph - -   Partly Cloudy
1:00 PM 51.8 °F 48.2 °F 88% 30.01 in 6.2 mi WSW 12.7 mph 25.3 mph N/A   Scattered Clouds
1:30 PM 51.8 °F 46.4 °F 82% 30.01 in 6.2 mi WSW 11.5 mph - N/A   Mostly Cloudy
2:00 PM 51.8 °F 46.4 °F 82% 30.01 in 6.2 mi SW 12.7 mph 24.2 mph N/A   Mostly Cloudy
2:30 PM 51.8 °F 46.4 °F 82% 29.98 in 6.2 mi SW 12.7 mph 25.3 mph N/A   Mostly Cloudy
3:00 PM 51.8 °F 48.2 °F 88% 29.98 in 6.2 mi SW 11.5 mph - N/A   Mostly Cloudy
3:30 PM 51.8 °F 48.2 °F 88% 29.98 in 6.2 mi SW 12.7 mph 25.3 mph N/A   Mostly Cloudy
4:00 PM 51 °F 48 °F 84% 29.99 in 6 mi SSW 13.8 mph - - Rain Light Drizzle
4:00 PM 51.8 °F 48.2 °F 88% 29.98 in 6.2 mi SW 15.0 mph - N/A   Drizzle
4:30 PM 51.8 °F 48.2 °F 88% 29.98 in 6.2 mi SW 15.0 mph - N/A   Mostly Cloudy
5:00 PM 51.8 °F 48.2 °F 88% 29.98 in 6.2 mi WSW 12.7 mph - N/A   Mostly Cloudy
5:30 PM 51.8 °F 46.4 °F 82% 29.98 in 6.2 mi SW 10.4 mph - N/A   Mostly Cloudy
6:00 PM 51.8 °F 48.2 °F 88% 29.98 in 6.2 mi SW 10.4 mph - N/A   Mostly Cloudy
6:30 PM 50.0 °F 46.4 °F 87% 29.95 in 6.2 mi SSW 12.7 mph 24.2 mph N/A   Mostly Cloudy
7:00 PM 49 °F 46 °F 87% 29.97 in 7 mi SSW 15.0 mph - -   Mostly Cloudy
7:00 PM 50.0 °F 46.4 °F 87% 29.95 in 6.2 mi SSW 12.7 mph - N/A   Mostly Cloudy
7:30 PM 50.0 °F 48.2 °F 94% 29.95 in 6.2 mi SSW 17.3 mph - N/A   Mostly Cloudy
8:00 PM 50.0 °F 48.2 °F 94% 29.92 in 6.2 mi SSW 13.8 mph - N/A   Mostly Cloudy
8:30 PM 50.0 °F 48.2 °F 94% 29.95 in 6.2 mi SW 15.0 mph - N/A   Mostly Cloudy
9:00 PM 50.0 °F 48.2 °F 94% 29.92 in 6.2 mi SSW 17.3 mph - N/A   Mostly Cloudy
9:30 PM 50.0 °F 48.2 °F 94% 29.92 in 6.2 mi SSW 17.3 mph 29.9 mph N/A   Mostly Cloudy
10:00 PM 50.0 °F 46.4 °F 87% 29.89 in 6.2 mi SSW 18.4 mph 29.9 mph N/A   Mostly Cloudy
10:30 PM 50.0 °F 46.4 °F 87% 29.86 in 5.6 mi SSW 20.7 mph 36.8 mph N/A   Drizzle
11:00 PM 50.0 °F 46.4 °F 87% 29.86 in 5.6 mi SSW 18.4 mph 32.2 mph N/A   Light Drizzle
11:30 PM 50.0 °F 48.2 °F 94% 29.83 in 3.7 mi SSW 17.3 mph 31.1 mph N/A Rain Rain